{"data":{"norad_id":65609,"intl_designator":"2025-207T","name":"STARLINK-35053","alt_names":[],"object_type":"PAYLOAD","status":"ACTIVE","operator":null,"country":"US","launch_date":"2025-09-13","launch_site_code":"AFWTR","launch_vehicle":null,"mission":null,"orbit_class":"UNKNOWN","rcs_meters":null,"size_class":null,"mass_kg":null,"dimensions":null,"purposes":["comms"],"wikipedia_slug":null,"has_3d_model":false,"image_url":null,"decayed_at":null,"tle_current":{"epoch":"2026-09-20T22:00:03.000096Z","epoch_age_seconds":75973,"freshness":"FRESH","line1":"1 65609U 25207T   26263.91670139 -.00004641  00000+0 -14156-3 0  9993","line2":"2 65609  97.2848 326.4242 0002146  96.1437 154.3845 15.33431434  5648","mean_motion":15.33431434,"eccentricity":0.0002146,"inclination_deg":97.2848,"raan_deg":326.4242,"arg_perigee_deg":96.1437,"mean_anomaly_deg":154.3845,"bstar":-0.00014156,"rev_number":564,"period_min":93.907035428622,"perigee_km":464.11487521983,"apogee_km":467.05220007459,"semimajor_km":6843.7205376472,"source":"CELESTRAK","updated_at":"2026-09-21T09:00:35.656498Z"}}}